Dewpoint
62 62 62 62 62 62 62 62 61 61 61 62 62 62 62 62 62 62 61 61 60 60 59 59 60 60 60 60 60 60 60 60 60 59 59 58 57 57 57 57 57 58 58 58 58 58 59 59 59 58 58 58 59 59 60 60 60 60 60 60 60 60 60 60 60 60 60 60 60
61 61 61 61 61 61 61 61 61 60 60 61 62 62 62 62 61 61 60 60 59 58 58 58 58 59 60 60 60 60 60 59 59 58 58 57 57 56 56 57 56 56 56 56 57 57 57 57 57 57 57 57 58 58 58 59 60 60 59 60 60 60 60 60 60 60 60 60 60
61 61 61 61 61 61 61 60 60 60 60 61 61 61 61 61 61 59 57 56 56 56 56 56 57 58 58 59 59 59 58 58 58 57 57 56 56 56 56 56 55 55 55 55 55 55 56 56 56 56 55 55 56 55 55 55 56 57 57 56 56 56 57 57 56 56 56 56 56
61 61 61 61 61 61 60 59 58 59 60 60 60 61 60 60 58 57 56 56 55 56 56 56 56 56 56 57 57 57 57 56 56 56 56 55 55 55 55 55 55 55 54 54 54 55 55 55 55 55 54 54 54 53 53 52 53 53 53 52 53 53 53 52 52 52 52 52 52
61 61 61 61 61 60 60 58 59 59 60 60 60 59 58 57 57 56 56 56 55 55 55 55 55 55 55 55 56 56 56 56 56 55 55 55 55 54 54 54 54 53 53 53 53 54 54 54 53 53 53 52 52 51 51 51 51 51 51 50 51 51 51 50 50 51 51 51 51
60 61 61 61 60 60 59 58 59 59 59 60 59 58 57 57 57 57 56 56 55 55 55 55 55 55 55 55 55 55 55 55 55 55 54 53 53 53 53 53 52 52 53 53 53 53 53 52 52 51 51 51 50 49 49 50 50 50 50 50 49 49 49 49 49 49 50 50 49
60 60 60 60 60 59 58 58 59 59 59 59 58 58 57 57 57 57 56 56 56 56 56 55 55 55 55 55 55 55 55 54 54 54 53 53 53 52 52 52 52 52 52 52 52 52 51 51 51 51 50 49 49 49 49 50 50 50 49 49 49 49 49 48 48 48 48 48 48
59 59 59 60 59 59 58 58 59 59 59 58 58 57 57 57 57 57 56 56 56 56 56 56 55 55 55 55 54 54 53 53 53 52 52 52 52 51 51 51 51 51 51 51 51 51 51 50 50 50 49 48 48 48 48 49 49 49 48 48 48 48 48 48 48 48 48 47 48
58 58 59 59 59 58 58 58 58 58 58 58 57 57 57 57 57 56 56 56 56 56 56 55 55 55 54 54 53 53 52 52 51 51 51 51 50 50 49 49 49 48 48 49 49 49 49 49 48 48 48 47 47 47 47 48 48 48 48 47 47 47 47 47 47 47 47 47 47
57 58 58 58 58 58 58 57 57 57 57 57 57 57 57 57 56 56 56 56 56 55 55 55 54 54 53 52 52 51 51 51 50 50 50 49 48 48 48 47 46 46 47 47 47 47 47 47 46 46 46 46 46 46 46 47 47 47 47 47 47 47 46 46 46 46 47 46 47
57 57 57 57 57 57 56 56 56 55 55 55 55 55 55 55 55 55 55 55 55 55 54 54 53 52 52 51 51 51 50 50 50 49 49 48 47 46 46 46 46 46 46 46 46 46 46 46 45 44 44 45 45 45 46 46 47 47 47 46 46 46 46 46 46 46 46 46 46
56 56 57 56 56 55 55 55 54 54 53 53 53 53 53 53 53 53 53 53 53 52 52 52 52 51 51 51 50 50 49 49 48 48 47 46 46 45 45 45 45 45 46 46 46 46 46 46 45 44 44 44 45 45 46 46 47 47 47 46 46 46 46 45 45 46 46 47 47
55 56 56 55 55 55 54 53 53 53 52 52 52 51 51 51 51 51 51 51 51 51 51 51 51 51 50 50 49 49 49 48 47 47 46 46 45 45 44 44 45 45 45 46 46 46 46 46 46 46 45 45 45 46 46 46 47 47 47 46 46 46 46 46 46 46 46 47 46
55 55 55 54 54 54 53 53 52 52 52 51 51 51 51 51 51 51 51 50 50 50 50 50 50 49 49 49 49 48 48 47 46 46 46 45 45 44 44 44 44 44 44 45 45 45 46 46 46 46 46 46 46 46 46 46 47 47 47 46 46 46 46 46 46 46 46 46 46
54 54 54 54 53 53 52 52 52 52 51 51 51 51 51 51 51 51 50 50 49 49 49 48 48 48 48 48 48 47 47 46 46 45 45 45 44 44 43 43 43 43 44 44 44 45 45 45 45 45 45 45 45 45 45 46 46 46 46 46 46 46 46 46 46 46 46 46 46
52 53 53 53 53 52 52 52 52 51 51 51 51 51 51 50 50 50 50 49 49 48 48 47 47 47 47 47 47 47 47 46 46 45 45 44 43 43 43 43 43 43 43 43 43 43 44 44 44 44 44 44 44 44 45 45 46 46 46 46 46 46 46 46 46 46 46 46 45
52 52 52 52 52 52 51 51 51 51 51 51 51 51 50 50 50 50 49 49 48 48 47 47 47 46 46 46 47 47 46 46 46 45 45 44 43 43 43 42 43 43 43 43 42 42 42 42 43 43 43 43 44 44 44 45 45 45 45 45 45 45 45 45 45 45 45 45 45
51 52 52 51 51 51 51 51 51 51 51 51 50 50 50 50 49 49 49 48 47 47 46 46 46 46 45 45 46 46 45 45 44 44 44 43 43 42 42 42 42 42 42 42 41 41 41 41 42 42 42 43 43 43 44 44 44 44 44 44 44 44 44 44 44 44 44 44 44
51 51 51 51 51 51 51 51 51 50 50 50 50 49 49 49 48 48 47 47 46 46 45 45 45 44 44 44 44 44 43 43 42 42 42 41 41 41 41 40 40 40 40 40 39 39 39 39 40 40 41 42 42 43 43 43 43 43 43 43 43 44 44 44 44 44 44 43 43
51 51 51 51 51 50 50 50 50 49 49 49 49 48 48 47 47 46 46 46 46 45 44 44 43 43 43 43 42 42 42 42 41 40 40 40 40 40 39 39 38 38 38 38 38 38 38 38 39 39 40 42 42 42 42 42 42 42 42 43 43 43 43 43 43 43 43 43 43
51 51 50 50 50 49 49 49 49 48 48 47 47 46 46 46 46 45 45 45 45 44 44 44 43 43 42 42 42 42 41 41 40 39 39 40 40 39 39 38 38 38 38 38 39 39 39 39 39 40 40 41 42 42 42 42 42 42 42 43 43 42 42 42 42 42 42 42 42
50 49 49 49 49 48 48 47 47 46 46 46 45 45 44 44 44 44 44 44 44 44 44 44 43 43 42 42 42 41 41 40 39 38 39 39 40 39 39 39 39 39 39 39 40 40 39 39 39 40 41 41 42 42 42 42 42 42 42 42 42 42 42 42 42 42 42 42 42
48 48 47 47 47 46 46 46 46 45 45 44 44 43 43 43 43 43 43 44 44 43 43 43 43 42 42 42 41 40 40 39 38 37 38 38 38 38 38 38 38 38 39 40 41 41 41 40 40 40 40 41 42 42 42 41 41 41 41 41 41 41 41 42 42 42 42 42 42
46 46 46 46 46 45 45 45 44 44 44 43 43 43 43 42 42 42 42 43 42 42 42 42 41 41 40 40 40 40 39 39 38 37 37 37 37 37 37 37 37 37 38 40 41 42 42 43 42 42 41 41 42 42 42 41 41 41 41 41 41 41 41 41 41 41 41 41 41
46 46 45 45 45 45 44 44 44 43 43 43 43 42 42 42 42 42 42 42 42 41 41 40 40 39 39 39 39 39 39 39 38 38 37 37 37 37 37 37 37 37 38 41 42 43 44 44 44 44 43 42 42 42 42 42 41 41 41 40 40 40 40 40 40 40 40 40 40
45 45 45 44 44 44 44 43 43 43 42 42 42 42 42 42 42 41 41 40 40 39 39 39 40 40 40 39 39 39 39 38 38 38 38 38 37 37 37 38 37 37 38 41 43 44 44 44 45 45 44 43 43 42 42 41 41 40 39 39 39 39 39 39 40 39 39 39 39
44 44 44 44 44 43 43 43 43 43 42 42 42 42 42 42 42 41 40 39 39 39 39 39 40 41 41 40 40 40 39 39 38 38 38 37 37 37 37 37 37 37 39 42 43 44 44 45 46 45 45 43 43 42 42 41 40 39 39 38 38 38 39 39 39 39 39 39 38
44 44 44 44 43 43 43 43 43 42 42 42 42 42 42 42 42 42 41 40 40 39 39 39 39 40 40 40 39 39 38 39 39 38 38 37 37 37 37 37 37 38 40 43 43 44 44 44 45 45 45 43 43 42 42 41 40 39 38 38 38 38 38 39 39 39 39 39 39
43 43 43 43 43 43 43 43 42 42 43 43 43 43 43 42 42 42 42 41 41 41 40 39 39 39 39 39 39 38 38 38 38 38 37 36 36 36 37 37 37 38 41 43 43 43 43 44 44 44 44 44 42 41 40 39 38 38 38 38 38 38 38 38 39 39 39 39 39
43 43 43 43 43 43 43 43 43 43 43 43 43 43 42 42 42 42 42 41 40 40 40 39 40 39 39 39 39 39 39 39 39 38 37 37 37 37 36 36 36 37 40 43 43 43 43 43 43 44 44 43 41 39 38 38 38 38 38 38 37 37 38 38 38 38 38 39 39
43 43 43 43 42 42 42 43 43 43 43 43 42 42 42 42 42 42 42 41 40 40 39 39 39 39 39 40 40 40 40 40 41 41 41 42 42 41 38 36 35 37 40 43 42 42 42 43 43 43 43 42 40 39 37 37 37 37 37 37 37 37 37 38 38 38 38 38 38
43 43 43 42 42 42 42 43 43 43 43 42 42 42 42 42 42 42 42 41 40 40 39 39 40 40 40 41 41 41 41 42 42 42 42 42 41 40 39 37 36 37 40 42 42 42 42 42 43 43 42 41 39 37 36 36 37 37 37 37 37 37 37 37 37 37 37 37 38
43 43 42 42 42 42 42 43 43 43 43 43 42 42 42 42 43 42 42 41 40 40 40 40 40 41 41 41 41 42 42 42 42 43 43 42 42 40 39 37 37 38 41 42 42 42 41 42 42 42 42 41 38 37 36 37 37 37 37 37 37 37 37 36 36 36 37 37 37
42 42 42 42 42 42 42 43 43 43 43 43 42 42 42 43 43 42 42 41 41 41 41 42 42 42 42 42 42 42 42 43 42 42 42 42 41 40 39 38 37 39 41 42 42 41 41 41 42 42 42 41 38 37 36 36 37 37 37 36 36 35 35 35 35 35 35 36 37
42 42 42 42 42 42 42 42 43 43 43 43 42 43 43 43 43 43 42 42 42 42 42 42 42 42 42 42 42 42 42 42 42 42 42 42 41 41 40 39 37 38 40 42 41 41 40 40 41 42 42 40 37 35 34 34 35 36 35 34 34 34 34 34 34 34 34 35 35
42 42 42 42 42 42 42 42 42 43 43 42 42 43 43 43 43 43 43 43 42 42 42 42 42 42 42 42 42 42 42 42 41 41 41 41 41 41 40 40 38 38 40 41 41 40 40 40 41 42 41 37 34 33 32 33 34 33 33 33 33 33 33 33 33 33 33 34 35
42 42 42 42 42 42 42 42 42 42 42 42 43 43 43 43 43 43 43 43 42 42 42 42 42 42 42 42 42 42 42 41 41 41 40 41 41 41 40 39 38 37 38 40 41 41 40 39 41 41 39 35 33 32 32 33 33 33 32 33 33 33 33 33 32 33 33 33 34
41 41 42 42 42 42 42 42 42 42 43 43 43 43 43 43 43 43 43 43 42 42 42 42 42 42 42 42 42 41 40 41 41 41 41 41 40 40 40 39 38 37 37 39 41 41 40 39 40 40 39 35 34 33 34 34 33 33 33 33 33 33 33 33 32 32 33 33 34
41 42 42 42 42 42 42 43 43 43 43 43 43 43 43 43 43 43 43 43 42 42 42 42 42 42 42 42 41 40 40 40 41 41 41 40 40 39 39 39 38 37 37 39 40 40 40 40 39 40 39 37 35 35 36 35 34 33 32 32 32 32 33 33 32 32 33 33 34
42 42 43 43 43 43 43 43 43 43 43 43 43 42 42 43 43 43 43 43 42 42 42 42 42 42 42 41 40 39 39 39 40 40 40 40 39 39 39 39 38 37 37 38 39 40 40 40 39 39 39 38 37 36 36 35 34 33 33 32 32 32 32 33 32 32 33 33 34
42 43 43 43 43 43 43 43 43 43 43 43 42 43 43 43 43 42 42 42 42 42 42 42 42 42 42 41 40 39 38 38 38 38 38 38 38 38 38 38 37 37 37 37 38 39 40 39 39 39 39 39 37 35 35 34 34 34 33 32 31 31 32 32 33 33 33 33 33